Location: Kumla
(59.1265°N, 15.1401°E)
Time: 17:03:18
(UTC+01:00)

A-11 Canister half - Pass Details

Date: 11 December 2023
Orbit: 1526 x 1682 km, 47.3° (Epoch: 24 February)

Event Time Altitude Azimuth Distance (km) Brightness Sun altitude
Rises 23:08:16 0° 277° (W) 4,935 11.9 -53.1°
Enters shadow 23:11:16 - 269° (W) 4,141 11.3 -53.2°
Reaches altitude 10° 23:12:07 10° 266° (W) 3,935 - -53.2°
Maximum altitude 23:19:48 26° 216° (SW) 2,836 - -53.4°
Drops below altitude 10° 23:27:22 10° 165° (SSE) 3,851 - -53.6°
Sets 23:31:06 0° 153° (SSE) 4,810 - -53.7°
